Regional Weather Roundup
Issued by NWS

Home | Current Version | Previous Version | Graphics & Text | Print | Product List | Glossary On
Versions: 1 2 3 4 5 6 7 8 9 10 11 12 13 14 15 16 17 18 19 20 21 22 23 24 25 26 27 28 29 30 31 32 33 34 35 36 37 38 39 40 41 42 43 44 45 46 47 48 49 50
000
ASUS43 KMPX 191410
RWRMN
WEATHER ROUNDUP FOR MINNESOTA
NATIONAL WEATHER SERVICE TWIN CITIES/CHANHASSEN MN
800 AM CST SUN FEB 19 2017


NOTE: "FAIR" INDICATES FEW OR NO CLOUDS BELOW 12,000 FEET WITH NO
SIGNIFICANT WEATHER AND/OR OBSTRUCTIONS TO VISIBILITY. N/A MEANS
CURRENT SKY AND/OR WEATHER CONDITIONS ARE NOT AVAILABLE.

MNZ060>063-068>070-191500-
   Twin Cities Metro

CITY           SKY/WX    TMP DP  RH WIND       PRES   REMARKS
TWIN CITIES    MOCLDY    36  33  89 SE5       29.96R
ST PAUL        PTCLDY    33  33 100 E3        29.98R
CRYSTAL        CLOUDY    32  28  85 CALM      29.94R
LAKEVILLE      CLOUDY    28  28 100 CALM      29.96R
EDEN PRAIRIE   PTCLDY    35  33  92 E3        29.94R
SOUTH ST PAUL  CLOUDY    35  33  94 CALM      29.97R
LAKE ELMO      FAIR      32  30  93 CALM      29.97R
$$
MNZ001>005-007-008-013>017-022>024-027-028-191500-
   Northwest Minnesota

CITY           SKY/WX    TMP DP  RH WIND       PRES   REMARKS
BEMIDJI        PTCLDY    33  31  96 SE10      29.89R WCI  24
HALLOCK        CLOUDY    36  30  80 E15       29.82S
ROSEAU         CLOUDY    34  28  80 E9        29.88S WCI  26
WARROAD        PTCLDY    32  28  86 E8        29.90S WCI  25
THIEF RVR FALL CLOUDY    35  31  85 E15       29.84S WCI  25
CROOKSTON      CLOUDY    36  34  93 SE14      29.81S
FOSSTON        CLOUDY    36  34  93 SE10G16   29.85R
DETROIT LAKES  MOCLDY    37  36  93 SE12      29.85S
MOORHEAD       PTCLDY    39  36  87 SE12      29.79F
PARK RAPIDS    MOCLDY    37  31  78 E8        29.88R
MAHNOMEN       FAIR      39  33  80 SE12G17   29.83S
$$
MNZ006-009>011-018-025>026-191500-
   North Central Minnesota

CITY           SKY/WX    TMP DP  RH WIND       PRES   REMARKS
BAUDETTE       CLOUDY    31  28  89 E6        29.91R WCI  25
FLAG ISLAND    CLOUDY    30  27  86 E3        29.91S
INTL FALLS     CLOUDY    30  28  92 SE3       29.94R
WASKISH        CLOUDY    32  30  93 E6        29.90S WCI  26
BIG FORK       CLOUDY    28  27  93 CALM      29.93R
LONGVILLE      CLOUDY    27  25  93 CALM      29.92S
GRAND RAPIDS   CLOUDY    31  30  96 S6        29.96R WCI  25
CRANE LAKE       N/A     25  25 100 CALM      29.97R
ORR            CLOUDY    28  27  93 CALM      29.92R
COOK           CLOUDY    28  27  93 CALM      29.95R
WALKER         FAIR      31  30  94 SE3       29.91R
$$
MNZ012-019>021-037-191500-
   Northeast Minnesota

CITY           SKY/WX    TMP DP  RH WIND       PRES   REMARKS
DULUTH         PTCLDY    34  30  85 E6        29.95R WCI  29
ELY            PTCLDY    28  28 100 CALM      29.95R
HIBBING        CLOUDY    26  26 100 CALM      29.94R
EVELETH        CLOUDY    30  29  96 CALM      29.97R
DULUTH HARBOR  CLOUDY    32  28  86 CALM      29.99R
TWO HARBORS    MOCLDY    34  28  80 CALM      29.96R
SILVER BAY     PTCLDY    32  30  93 CALM      29.95R
GRAND MARAIS     N/A     38  30  73 E3        29.97R
G MARAIS ARPRT CLOUDY    30  25  80 N7        29.94R WCI  23
$$
MNZ029>031-032-039>041-046>048-054>057-064-191500-
   West Central Minnesota

CITY           SKY/WX    TMP DP  RH WIND       PRES   REMARKS
FERGUS FALLS   CLOUDY    43  37  81 SE15      29.85F
WHEATON        PTCLDY    36  34  93 SE14      29.81S
MORRIS         CLOUDY    37  37 100 SE13      29.82S
ALEXANDRIA     PTCLDY    39  36  89 SE10      29.86F
ELBOW LAKE     FAIR      40  37  90 SE10      29.82F
WADENA         PTCLDY    36  34  93 E7        29.88R
GLENWOOD       PTCLDY    37  36  93 SE10      29.87S
APPLETON       CLOUDY    37  36  93 E10       29.82F
BENSON         MOCLDY    43  36  75 SE10G16   29.86S
ORTONVILLE     PTCLDY    36  34  93 SE13      29.79F
WILLMAR        FAIR      37  37 100 CALM      29.88F
$$
MNZ033>034-036-042>043-049>051-058-059-191500-
   Central Minnesota

CITY           SKY/WX    TMP DP  RH WIND       PRES   REMARKS
ST CLOUD       PTCLDY    34  34 100 SE5       29.93R FOG     WCI  30
SAUK CENTRE    FAIR      35  35  99 E6        29.89S WCI  30
PAYNESVILLE    CLOUDY    38  38 100 SE7       29.91R
AITKIN         PTCLDY    34  28  80 CALM      29.92S
PINE RIVER     PTCLDY    36  30  80 SE8       29.95R
BRAINERD       CLOUDY    36  33  89 SE5       29.93R
STAPLES        PTCLDY    36  36 100 SE5       29.90R
LONG PRAIRIE   FAIR      36  36 100 E5        29.90S
LITTLE FALLS   PTCLDY    30  30 100 CALM      29.93R
LITCHFIELD     PTCLDY    36  36 100 SE6       29.92R FOG
BUFFALO        MOCLDY    32  31  96 CALM      29.95R FOG
MAPLE LAKE     MOCLDY    33  33 100 CALM      29.94R FOG
HUTCHINSON     CLOUDY    36  36 100 E6        29.93R
$$
MNZ037-044-045-052-053-191500-
   East Central Minnesota

CITY           SKY/WX    TMP DP  RH WIND       PRES   REMARKS
PRINCETON      PTCLDY    30  28  93 CALM      29.95R
MORA           PTCLDY    32  30  93 CALM      29.96R
CAMBRIDGE      CLOUDY    32  27  80 CALM      29.93R
RUSH CITY      PTCLDY    32  30  93 CALM      29.95R FOG
MOOSE LAKE     CLOUDY    32  28  86 CALM      29.95R
HINCKLEY       FAIR      32  32 100 N3        29.95S
CLOQUET        CLOUDY    34  28  80 CALM      29.96R
MCGREGOR       CLOUDY    32  32 100 E5        29.94R WCI  27
$$
MNZ071>073-080-081-089-090-097-098-191500-
   Southwest Minnesota

CITY           SKY/WX    TMP DP  RH WIND       PRES   REMARKS
MONTEVIDEO     CLOUDY    36  36 100 S10       29.85F
GRANITE FALLS  MOCLDY    38  36  93 E7        29.86F
CANBY          CLOUDY    35  34  96 CALM      29.80F
MARSHALL       PTCLDY    43  36  76 SE12      29.82F
REDWOOD FALLS  PTCLDY    37  35  92 E7        29.87S FOG
OLIVIA         PTCLDY    36  34  93 SE10      29.87S
PIPESTONE      CLOUDY    41  30  65 S10       29.81S
WINDOM         CLOUDY    41  37  87 SE13      29.87S
WORTHINGTON    CLOUDY    40  35  83 SE10      29.86
JACKSON        CLOUDY    37  34  87 S12       29.90R
TRACY          CLOUDY    43  38  82 S17       29.84S
SLAYTON        PTCLDY    35  34  95 SE10      29.85S WCI  27
$$
MNZ065>067-074>077-082>085-091>093-191500-
   South Central Minnesota

CITY           SKY/WX    TMP DP  RH WIND       PRES   REMARKS
MANKATO          N/A     36  34  92 SE9       29.94R
NEW ULM        PTCLDY    36  36 100 SE7       29.90S FOG
ST JAMES       CLOUDY    36  36 100 SE7       29.91S FOG
FAIRMONT       PTCLDY    36  36 100 S8        29.92R FOG
GLENCOE        CLOUDY    35  35 100 E6        29.93R WCI  30
FARIBAULT      CLOUDY    32  30  93 CALM      29.95R FOG
OWATONNA       CLOUDY    37  36  93 SE8       29.95R
WASECA         CLOUDY    34  32  93 E5        29.96R WCI  30
ALBERT LEA     CLOUDY    36  36 100 SE5       29.95R FOG
$$
MNZ078>079-086>088-094>096-191500-
   Southeast Minnesota

CITY           SKY/WX    TMP DP  RH WIND       PRES   REMARKS
ROCHESTER      CLOUDY    33  33 100 S8        29.97R WCI  26
RED WING       PTCLDY    34  32  93 E5        29.98R FOG     WCI  30
STANTON        PTCLDY    31  29  92 CALM      29.95R
DODGE CENTER   CLOUDY    36  32  87 CALM      29.96R
WINONA         PTCLDY    30  30 100 CALM      30.01R
AUSTIN         CLEAR     34  34 100 SE5       29.96R WCI  30
PRESTON        CLEAR     34  32  93 S6        29.98S WCI  29
$$
ABBREVIATIONS USED IN REMARKS
   TC - TEMPERATURES IN CELSIUS
  WCI - WIND CHILL INDEX
   HX - HEAT INDEX
  VSB - VISIBILITY
$$




USA.gov is the U.S. government's official web portal to all federal, state and local government web resources and services.